Flag for Germany Weather past 2 weeks in Limburg an der Lahn, Hesse, Germany

Now
61 °F

Clear.


Feels Like: 61 °F
Forecast: 59 / 88 °F
Wind: No wind

Location: Wiesbaden Airport

Current Time: Aug 2, 2015 at 7:16:22 AM

Latest Report: Aug 2, 2015 at 5:58 AM


Visibility: N/A

Pressure: 30.07 "Hg

Humidity: 68%

Dew point: 50 °F

Location of Limburg an der LahnLocation

Historic Weather in Limburg an der Lahn — Graph

°F

Limburg an der Lahn temperature yesterday

Maximum temperature yesterday: 82 °F (at 5:58 PM)
Minimum temperature yesterday: 63 °F (at 2:58 AM)
Average temperature yesterday: 70 °F

Past Weeks' High & Low Weather Summary

 TemperatureHumidityPressure
High90 °F (Jul 22, 2:58 PM)100% (Jul 18, 5:58 AM)30.13 "Hg (Jul 18, 5:58 AM)
Low49 °F (Jul 26, 5:58 AM)30% (Aug 1, 3:58 PM)29.62 "Hg (Jul 24, 10:58 PM)
Average69 °F62%29.90 "Hg
* Reported Jul 18 5:58 AM — Aug 2 5:58 AM, Limburg an der Lahn, Weather by CustomWeather, © 2015

Note: Actual official high and low records may vary slightly from our data, if they occured in-between our weather recording intervals... More about our weather records

Advertising

Limburg an der Lahn weather history for previous 24 hours

 ConditionsComfort  
Time TempWeatherWind HumidityBarometerVisibility
5:58 AM
Sun, Aug 2
61 °FClear.No wind68%30.07 "HgN/A
4:58 AM61 °FClear.2 mph68%30.05 "HgN/A
3:58 AM60 °FClear.No wind70%30.04 "HgN/A
2:58 AM65 °FClear.No wind61%30.03 "HgN/A
1:58 AM65 °FClear.1 mph60%30.03 "HgN/A
12:58 AM64 °FClear.3 mph64%30.02 "HgN/A
11:58 PM
Sat, Aug 1
66 °FClear.No wind56%30.01 "HgN/A
10:58 PM70 °FClear.3 mph50%29.99 "HgN/A
9:58 PM71 °FSunny.5 mph49%29.98 "HgN/A
8:58 PM75 °FSunny.5 mph41%29.95 "HgN/A
7:58 PM79 °FPassing clouds.7 mph34%29.93 "HgN/A
6:58 PM81 °FSunny.2 mph32%29.93 "HgN/A
5:58 PM82 °FSunny.7 mph30%29.92 "HgN/A
4:58 PM81 °FSunny.7 mph32%29.93 "HgN/A
3:58 PM81 °FSunny.3 mph30%29.93 "HgN/A
2:58 PM79 °FSunny.3 mph34%29.93 "HgN/A
1:58 PM77 °FSunny.2 mph34%29.94 "HgN/A
12:58 PM73 °FPassing clouds.No wind38%29.95 "HgN/A
11:58 AM71 °FSunny.8 mph42%29.96 "HgN/A
10:58 AM69 °FSunny.10 mph44%29.96 "HgN/A
9:58 AM66 °FPassing clouds.10 mph47%29.96 "HgN/A
8:58 AM64 °FPartly sunny.9 mph49%29.96 "HgN/A
7:58 AM63 °FScattered clouds.1 mph50%29.94 "HgN/A
Weather by CustomWeather, © 2015

See weather overviewHow to use our weather pages